Voltar ao catálogo

FENGYUN 1C DEB

AtivoPO
NORAD 30771·DEBRIS·🇨🇳 China

Lançado May 10, 1999 de Taiyuan Satellite Launch Center

Loading…

Próximas Passagens (próximas 24 horas)

TLE

AtualizadoSource: Space-Track

Época: Sep 13, 2026, 22:21 UTC

1 30771U 99025AUH 26256.93135825  .00004470  00000-0  12381-2 0  9992
2 30771  98.9158 250.7312 0020483 190.6848 169.3910 14.47022801 10350

Acompanhe FENGYUN 1C DEB em tempo real com AllMySat

Download on the App Store